GFSGBSN_250_spd_021.txt.gz
Wind_Speed
31 32 33 34 35 36 37 38 39 40 42 42 42 42 42 41 39 38 38 38 37 37 35 32 29 27 27 26 28 19 21 17 17 16 17 14 9 9 8 10 10 7 7 14 20 20 19
34 35 36 37 38 39 40 41 42 44 45 45 46 46 47 47 46 45 45 44 43 42 41 40 38 36 33 31 31 25 24 22 19 19 19 19 14 9 9 7 10 9 7 7 8 15 17
35 35 36 38 39 40 41 43 43 44 46 47 47 46 47 47 47 46 46 45 44 42 44 46 46 45 42 38 36 34 30 27 24 21 20 20 20 12 10 9 7 9 9 8 7 8 8
39 40 42 43 44 46 47 47 47 48 49 50 49 49 50 50 50 49 48 48 47 46 45 44 45 45 46 44 44 41 40 37 32 28 25 22 21 21 14 11 9 8 8 6 7 7 2
44 46 47 47 48 48 48 47 48 49 48 46 44 42 42 41 41 40 38 36 37 38 40 42 45 47 47 48 46 46 44 45 41 37 31 28 25 23 22 17 13 13 10 6 6 6 2
46 46 48 48 48 47 45 43 41 39 37 35 34 35 35 35 34 32 32 32 31 31 31 33 33 38 44 48 50 49 48 48 47 45 40 36 33 26 27 27 15 18 15 10 6 5 6
47 47 45 45 43 41 38 36 35 35 37 36 34 33 35 34 32 35 32 30 32 30 26 25 25 26 32 36 42 45 46 50 49 48 45 41 35 35 34 28 23 24 20 18 13 8 6
45 45 43 43 41 40 38 37 37 37 36 35 38 39 38 37 40 38 36 37 37 31 31 27 25 23 21 26 29 32 38 41 50 51 48 45 43 43 40 33 29 28 26 24 19 14 11
45 44 43 42 42 40 40 41 42 41 42 43 40 39 39 38 40 40 37 39 40 34 31 37 26 29 26 29 25 24 23 30 38 47 52 50 52 46 43 39 34 32 33 29 25 21 14
48 47 47 46 44 46 46 45 46 48 48 47 46 45 46 45 43 45 41 46 39 39 28 43 33 35 36 35 36 23 27 22 23 34 43 50 53 52 48 44 43 35 40 37 31 27 24
53 53 52 51 52 51 49 49 50 49 49 50 49 50 53 48 48 46 43 50 47 42 27 41 41 43 46 42 41 37 30 30 26 20 22 44 51 55 54 50 48 49 42 43 39 32 30
55 58 59 60 59 60 57 58 56 55 54 54 52 52 56 55 58 50 52 54 50 46 35 46 43 46 51 54 52 46 39 38 34 27 23 29 34 49 58 57 52 56 50 46 45 37 30
60 61 64 66 67 67 65 64 64 64 63 62 62 61 60 65 64 64 61 60 59 49 50 54 59 52 52 54 57 52 49 43 42 38 33 34 26 28 44 59 60 59 56 53 48 41 33
67 68 69 72 75 73 71 72 71 72 72 70 70 70 71 69 72 70 71 69 65 59 60 66 67 59 54 57 58 60 56 49 50 46 47 38 34 34 32 34 59 61 62 57 54 49 48
70 70 72 74 76 77 77 77 77 77 78 77 76 76 78 79 80 79 77 74 71 70 70 71 74 68 60 60 64 67 61 57 57 55 50 49 42 44 33 31 40 54 58 64 66 62 56
74 75 75 76 78 80 82 83 83 85 86 85 81 82 88 84 85 87 86 80 81 82 79 81 77 77 74 72 69 67 69 63 61 61 60 56 52 52 43 39 29 33 45 65 64 63 59
82 84 85 85 84 84 85 85 86 88 91 92 89 87 97 94 92 90 87 90 90 89 90 88 85 79 78 78 78 74 66 67 69 67 67 65 59 58 54 46 44 41 36 43 65 69 65
86 89 91 93 94 94 94 94 94 95 97 98 97 97 107 108 104 102 98 98 100 98 100 99 96 92 87 84 84 82 72 68 72 75 71 70 69 63 56 58 50 47 39 43 52 53 69
83 88 93 96 100 103 105 105 107 106 108 109 109 107 113 117 113 115 111 107 109 106 106 107 106 105 102 97 96 91 86 74 77 81 75 76 71 71 63 57 53 52 48 49 43 46 62
89 94 98 101 104 109 113 114 117 119 121 120 119 118 122 127 123 122 123 117 118 116 115 116 112 114 111 107 108 99 97 91 88 83 82 86 79 73 69 70 75 62 59 55 54 43 44
93 98 102 106 110 112 116 119 123 126 126 127 130 128 131 132 135 134 133 129 129 129 130 126 122 121 121 117 116 109 110 102 97 92 93 93 87 79 74 77 81 72 68 61 49 46 46
102 108 113 118 122 125 127 130 132 134 137 137 137 137 140 140 143 145 143 144 140 137 135 134 134 130 131 128 125 123 118 110 106 103 99 99 93 88 83 79 82 79 74 65 60 57 49
110 116 121 126 131 133 135 135 134 130 128 124 120 120 119 126 131 135 141 138 134 129 130 135 146 138 142 141 134 126 123 120 111 109 110 107 101 97 85 85 85 90 66 71 68 61 56
121 129 131 122 113 106 101 98 94 91 88 86 85 84 82 86 84 88 94 94 93 95 99 112 127 132 138 139 137 135 134 127 121 117 120 114 110 105 93 93 96 75 75 76 75 65 58
118 107 100 93 87 84 78 73 70 68 66 65 65 65 66 69 68 72 75 77 77 79 79 86 95 101 108 122 126 130 134 139 133 124 125 122 118 109 103 96 87 81 79 84 82 69 64
99 93 84 77 72 68 64 62 60 58 57 55 54 52 52 55 53 53 58 61 63 63 61 65 72 75 83 89 98 110 119 126 126 131 126 124 123 119 108 98 90 78 83 85 85 74 58
84 77 73 70 65 59 56 53 51 49 46 45 43 41 41 44 36 42 46 47 49 50 51 54 56 58 66 71 79 89 94 106 114 119 128 128 127 122 111 98 90 85 82 88 86 71 62
75 72 66 59 52 49 48 45 42 37 35 34 34 31 32 32 27 38 38 36 36 36 40 43 43 47 52 58 66 72 76 82 93 103 116 127 121 111 107 104 96 89 83 86 81 73 57
68 62 54 48 46 43 40 36 32 27 25 25 25 23 24 24 27 27 27 28 29 30 30 32 34 36 40 46 54 59 62 68 79 92 105 110 116 113 110 107 102 95 90 84 83 71 53

GFSGBSN_250_spd_024.txt.gz
Wind_Speed
33 33 34 34 34 35 36 37 38 38 39 39 39 39 39 39 39 38 37 37 36 36 36 34 32 30 31 29 23 23 23 21 21 21 18 9 8 7 9 7 7 6 6 8 16 22 26
38 37 36 37 38 39 40 40 41 41 41 42 43 43 43 42 42 42 42 42 41 41 41 40 40 36 34 35 33 30 28 25 24 23 23 18 13 10 10 10 7 8 9 8 8 12 13
37 37 39 40 40 40 41 42 44 45 45 45 46 46 46 46 45 45 44 43 42 42 42 43 41 40 43 42 40 37 35 32 29 26 24 22 18 15 13 12 12 9 7 5 7 9 9
40 40 40 41 43 44 45 46 48 49 50 51 51 51 50 49 49 48 47 45 45 45 45 46 45 42 43 42 44 44 42 40 37 33 30 26 24 19 17 16 15 14 10 7 8 10 11
46 46 44 46 47 49 51 52 53 54 54 54 54 52 52 51 48 46 43 40 38 36 35 35 37 37 40 40 44 44 44 45 43 43 38 34 29 27 23 22 19 14 15 10 5 6 6
46 48 50 51 53 53 53 54 55 55 55 54 52 47 44 40 38 37 34 32 31 29 27 26 25 28 27 31 36 40 43 47 46 46 44 42 38 34 29 29 20 18 19 16 12 7 2
48 49 51 53 55 56 56 55 54 53 50 46 42 40 39 39 38 35 31 29 29 28 28 26 25 22 23 27 27 31 34 38 46 50 48 45 43 42 39 36 26 24 24 21 15 14 8
53 55 56 57 58 58 56 54 52 50 46 43 42 43 43 40 41 40 36 37 35 28 31 30 29 26 23 24 22 20 26 29 36 44 51 49 49 48 43 40 33 30 28 27 21 18 13
53 55 56 56 57 55 54 52 52 50 49 47 46 45 45 45 43 42 39 40 38 33 33 37 27 33 23 27 27 23 15 23 27 33 41 51 53 48 46 44 41 35 36 31 28 21 16
60 60 60 60 60 58 56 55 55 55 53 52 51 51 53 53 49 47 42 44 39 38 32 41 30 34 34 30 34 32 26 20 17 19 27 44 50 52 50 48 46 42 45 37 30 26 23
64 64 63 62 62 61 61 61 60 59 58 58 58 56 56 57 57 54 52 53 47 42 33 42 38 38 39 39 43 38 31 29 25 16 17 27 41 50 53 54 50 56 46 42 37 30 28
68 69 68 67 66 66 64 65 67 67 66 65 62 61 60 61 61 56 56 56 54 50 39 42 44 44 46 44 43 40 38 35 33 28 27 30 21 30 51 55 55 62 52 49 44 38 27
70 72 74 74 73 72 73 72 71 72 73 73 73 72 70 69 65 65 60 59 59 52 50 53 51 50 49 47 48 45 41 37 37 33 36 37 30 23 30 44 55 62 60 54 50 43 35
72 73 76 78 79 79 77 78 78 78 78 77 79 78 79 78 75 70 72 70 63 60 63 63 60 56 57 59 55 53 47 40 41 39 44 38 37 40 40 32 41 54 62 60 56 51 49
78 77 77 79 83 85 85 84 83 83 84 84 82 84 87 84 82 80 80 76 73 73 71 71 70 70 67 68 65 61 53 50 48 47 45 45 42 49 39 39 32 38 46 63 62 58 54
82 85 87 88 88 87 89 91 91 90 89 89 87 85 92 90 89 88 87 81 81 82 81 77 78 77 74 72 68 64 63 54 55 56 55 51 49 51 44 43 32 32 37 43 56 62 60
75 77 78 78 82 87 89 92 95 94 94 94 93 91 98 97 96 95 93 92 92 92 90 88 86 84 82 82 76 71 66 67 67 62 64 60 56 58 49 35 43 41 41 33 38 50 61
71 75 76 79 80 81 86 91 93 97 98 101 102 102 109 104 104 102 99 99 100 99 102 97 93 90 88 88 82 77 70 70 71 71 70 68 65 60 52 49 43 36 34 35 33 28 34
75 78 82 86 87 89 90 91 93 96 98 100 104 107 112 113 114 110 108 107 104 105 107 108 102 96 92 90 87 84 78 79 80 79 74 75 69 65 60 54 46 46 48 45 37 34 30
85 89 93 95 98 100 102 103 104 104 105 105 108 110 114 117 117 116 115 114 114 114 113 112 110 106 101 99 98 94 89 87 87 88 84 83 78 72 65 58 63 57 55 51 42 27 30
93 97 102 105 107 110 111 111 111 112 112 112 116 118 117 120 119 118 119 120 122 123 123 118 117 116 112 108 107 105 100 95 93 93 90 87 80 79 71 68 70 63 60 59 51 44 30
105 109 113 117 118 119 117 117 117 118 119 121 122 124 123 124 129 128 127 125 125 125 126 125 127 127 123 117 115 112 108 104 100 100 99 94 84 85 77 74 73 72 69 61 57 51 48
110 105 101 97 95 93 91 90 89 90 91 93 93 96 104 119 130 133 135 131 132 133 134 133 132 129 124 123 120 116 115 113 110 109 108 106 95 91 83 84 82 90 64 67 61 61 57
108 97 88 82 78 74 72 70 68 68 67 69 72 74 76 83 87 94 104 114 127 134 135 133 138 137 136 133 132 126 123 118 116 117 118 113 107 103 93 95 100 74 76 72 70 67 63
92 86 77 70 65 62 58 56 55 53 51 51 54 56 61 66 69 71 76 81 88 96 100 111 128 141 136 138 140 135 128 124 123 124 124 118 118 109 103 103 98 87 78 79 77 70 71
83 72 64 59 57 56 53 50 47 46 44 45 45 45 49 51 49 55 61 64 69 73 78 85 92 96 99 114 121 126 133 131 131 130 126 124 121 120 113 109 104 89 85 83 85 81 73
71 63 59 56 53 49 46 44 42 41 39 36 34 34 39 38 36 46 48 52 55 59 64 68 72 74 79 84 90 93 107 128 135 137 129 133 131 130 124 118 108 97 92 92 92 85 77
66 62 58 53 49 44 42 40 38 35 31 27 24 24 25 25 32 33 36 36 40 45 49 52 54 57 62 68 75 81 86 94 107 123 135 138 137 131 125 122 117 106 103 102 95 90 80
66 61 55 50 46 43 39 35 32 28 23 20 18 16 17 18 21 23 25 28 29 32 34 36 39 44 50 52 59 63 70 77 86 96 116 131 131 126 127 124 121 111 106 104 101 90 80

GFSGBSN_250_spd_030.txt.gz
Wind_Speed
36 36 36 37 37 38 39 40 41 41 42 42 42 42 41 42 42 42 42 42 41 41 41 41 41 38 36 34 33 30 30 27 24 23 22 19 14 14 11 12 9 8 8 12 18 20 21
39 40 40 42 42 43 44 45 45 46 47 48 47 47 47 46 46 46 45 45 44 43 42 41 39 39 38 36 36 38 32 32 29 28 28 27 21 20 16 16 14 13 9 8 12 16 15
44 44 44 45 46 47 48 50 51 51 51 51 50 49 48 45 44 43 41 44 44 44 45 46 45 43 42 43 40 41 38 37 36 33 34 33 29 25 22 21 19 15 12 10 9 12 13
42 42 44 44 46 48 50 49 48 47 50 49 49 50 50 48 49 47 47 50 49 50 52 52 51 49 47 46 46 46 44 42 41 40 38 37 36 33 27 25 24 19 15 15 11 13 11
45 46 48 49 51 52 51 53 56 56 57 57 57 55 55 53 54 51 51 54 52 51 54 52 51 50 50 48 46 45 47 47 46 44 41 38 40 40 33 30 29 23 19 19 14 16 9
49 51 51 52 53 53 53 55 57 58 58 58 58 60 58 58 59 57 55 56 56 54 53 53 51 50 51 49 49 46 46 47 49 51 48 46 42 43 42 40 35 27 21 23 19 18 11
51 52 54 56 58 59 59 60 61 60 59 60 60 62 63 61 61 59 57 58 58 56 56 53 51 48 47 47 46 45 46 45 48 49 51 51 49 49 49 46 39 32 28 27 23 20 17
58 59 58 59 62 64 64 63 62 62 62 63 64 65 67 66 66 64 62 60 59 56 51 50 48 49 45 44 45 43 42 42 41 43 45 49 55 53 47 44 43 38 37 35 28 24 20
61 61 61 62 64 65 68 69 69 69 69 69 70 69 70 69 67 66 64 61 58 56 52 54 49 50 46 40 47 43 39 38 36 33 37 41 46 47 50 50 46 44 44 40 35 26 21
63 66 67 68 70 71 73 74 74 74 75 73 73 71 71 74 71 67 63 62 61 57 55 55 55 50 49 43 45 47 43 39 36 37 30 32 38 43 46 51 53 49 53 41 36 32 27
68 71 72 73 74 76 77 78 79 79 80 80 79 75 72 71 73 70 68 64 63 61 60 57 59 54 52 51 50 52 50 41 40 37 28 34 26 30 37 48 47 54 50 43 38 34 30
77 79 80 81 83 84 84 86 87 86 85 85 85 83 77 74 75 74 74 71 67 67 62 60 58 59 56 54 55 54 52 47 47 39 37 33 28 27 31 30 39 46 50 48 42 38 30
76 76 76 76 76 75 75 76 80 83 86 88 90 89 85 81 79 79 77 77 75 68 66 67 63 62 63 63 57 56 54 51 48 45 45 47 38 36 32 27 27 34 43 45 44 38 45
72 73 73 73 75 77 79 82 85 86 85 87 89 90 89 87 84 84 83 80 78 74 73 72 72 69 69 69 66 62 58 54 52 48 51 46 41 38 38 32 33 32 24 28 42 48 47
69 71 74 77 79 81 83 84 85 87 87 85 87 89 88 88 89 92 92 88 81 81 80 78 78 78 75 73 70 70 67 62 60 56 55 51 45 47 44 43 39 31 19 27 24 35 44
70 71 73 75 79 82 84 86 87 90 90 90 92 91 89 89 91 91 95 94 92 86 83 87 86 83 80 78 75 74 73 69 66 62 56 52 49 47 46 43 38 30 33 20 16 17 26
72 76 80 84 89 93 97 99 99 100 99 98 97 96 94 94 94 94 94 93 97 94 89 87 92 91 87 84 81 80 76 73 71 68 63 58 54 53 51 40 39 37 34 29 24 20 19
79 83 88 94 98 104 108 109 109 106 104 103 101 100 98 99 95 97 96 95 95 95 97 97 91 96 94 92 88 88 81 77 73 72 69 65 60 57 54 52 47 41 36 28 22 25 27
88 92 97 99 104 110 113 113 113 112 110 110 108 105 102 100 99 99 99 99 97 96 96 96 100 98 100 98 98 96 92 85 81 77 74 70 66 65 63 61 52 44 42 38 32 28 22
95 98 97 100 103 105 107 106 104 102 100 99 100 100 101 102 103 104 103 100 101 98 97 96 96 99 101 103 102 100 99 94 90 86 80 77 73 72 68 68 61 55 49 42 38 30 28
100 100 96 93 89 84 77 75 73 71 71 71 74 78 82 84 93 104 109 107 104 103 101 98 96 97 102 106 107 105 101 100 98 95 91 86 82 78 75 75 70 64 57 53 45 38 32
104 97 89 79 71 66 62 62 62 58 57 56 56 59 65 67 71 79 94 107 111 110 109 104 99 95 99 106 110 111 109 106 103 101 99 95 91 85 81 78 75 68 63 60 56 50 45
100 90 81 70 65 61 58 55 53 50 49 49 48 49 52 54 57 59 69 85 101 109 114 113 107 98 98 100 107 111 111 110 107 103 102 101 97 93 88 85 79 70 67 65 63 57 51
97 86 73 67 61 57 51 48 44 43 40 39 40 41 42 45 47 52 59 66 77 93 108 112 114 109 102 100 101 106 110 111 109 107 104 100 100 100 94 90 86 75 73 71 67 62 55
92 80 72 64 58 53 49 47 44 40 38 35 32 32 34 35 40 44 49 56 63 72 87 104 106 112 111 105 102 101 104 108 112 111 109 105 103 98 96 94 85 81 78 75 69 61 61
90 77 69 63 58 53 50 46 44 41 36 32 30 26 23 24 30 35 39 45 51 60 70 81 94 99 105 112 106 103 104 103 109 111 112 113 109 103 96 93 86 83 82 79 74 63 63
89 77 67 61 57 52 50 49 46 41 37 32 27 23 19 15 17 24 32 39 43 48 57 66 72 84 94 101 106 110 106 105 103 106 115 113 112 104 100 97 89 85 85 81 76 62 66
82 73 63 59 56 51 50 50 47 41 34 31 27 24 19 14 12 14 19 26 34 41 46 51 57 65 74 87 95 102 110 108 104 107 107 106 108 105 105 98 89 86 88 85 73 74 76
77 67 60 55 50 50 48 45 46 40 38 33 28 24 18 14 11 8 9 12 18 28 35 38 42 49 57 66 75 88 96 101 110 110 110 106 101 100 101 91 89 93 94 89 82 79 82

GFSGBSN_250_spd_033.txt.gz
Wind_Speed
35 36 38 39 40 40 40 40 40 40 40 40 41 41 40 40 39 39 40 41 41 39 37 36 36 34 36 35 33 31 30 27 27 27 27 18 16 17 16 16 15 14 13 11 10 10 14
40 41 41 42 43 44 44 45 46 46 47 47 47 47 46 46 46 47 46 47 46 44 43 40 39 36 36 38 32 31 31 32 30 31 30 29 18 23 20 20 19 18 17 15 12 7 10
43 43 44 45 48 50 50 51 51 52 52 52 52 52 52 51 50 49 49 49 47 41 39 37 36 34 35 41 35 37 35 35 34 34 34 33 27 28 24 25 22 21 21 20 18 16 10
47 48 48 49 50 47 50 54 54 53 53 54 55 52 50 49 50 46 48 50 49 47 46 45 44 42 42 45 42 45 42 39 39 38 39 36 34 32 32 30 28 23 24 23 20 17 13
46 48 50 51 51 52 52 54 55 56 57 56 55 55 56 57 57 53 53 53 55 53 53 50 48 47 43 45 43 44 42 43 42 40 40 40 39 38 38 36 35 30 25 24 22 18 12
52 52 54 56 57 59 60 61 62 63 63 63 62 62 63 59 62 62 62 59 60 57 56 55 54 50 47 46 44 43 42 41 39 41 43 44 43 42 41 41 39 33 27 27 24 20 16
51 53 55 56 58 60 61 62 62 63 64 64 64 64 63 61 59 60 60 60 58 62 63 60 58 52 52 51 47 45 44 43 41 43 44 44 49 53 49 46 39 36 32 33 29 22 20
58 60 62 64 65 66 66 67 68 68 69 68 68 70 71 67 66 64 65 62 63 62 63 62 61 60 56 53 50 50 46 45 41 41 42 48 53 49 47 49 44 37 36 37 35 27 22
62 64 66 68 69 70 70 71 72 73 74 74 71 72 73 74 70 66 66 66 66 65 65 67 64 62 57 52 52 51 47 46 42 40 44 46 44 45 45 47 50 45 46 43 40 33 27
64 66 68 70 72 74 75 76 76 78 80 80 77 76 76 79 78 74 72 72 72 68 68 67 67 64 61 53 52 54 49 45 42 42 40 40 39 40 41 46 50 50 53 47 42 36 32
71 73 75 78 80 82 84 85 86 87 89 89 87 84 83 82 83 80 78 75 73 72 71 69 67 64 62 59 55 56 55 47 45 46 39 42 36 34 33 39 42 52 47 47 41 38 33
72 72 72 73 74 77 79 80 81 83 84 87 89 89 90 89 89 90 88 81 77 76 70 69 67 67 67 64 60 61 58 53 52 47 41 41 40 31 37 33 36 43 46 48 45 41 35
62 65 68 73 76 78 80 81 82 83 85 87 86 83 83 82 85 86 89 90 87 81 75 73 68 68 69 69 65 63 61 59 56 53 48 46 45 39 36 34 32 32 40 43 43 44 50
69 72 75 79 79 81 84 86 87 86 86 88 91 89 89 88 87 88 88 86 89 88 83 77 73 71 72 73 71 69 66 63 62 59 55 53 50 48 40 39 34 29 26 29 41 50 56
61 64 69 74 78 82 87 91 95 96 95 95 96 96 95 96 95 94 93 93 90 88 86 83 79 77 75 76 77 75 71 67 66 65 60 55 51 52 48 46 37 31 24 31 30 40 47
66 71 78 84 88 94 98 101 104 105 105 104 104 105 103 102 101 99 98 98 97 89 88 89 88 83 80 79 81 81 78 72 70 68 62 58 56 56 57 55 45 37 33 21 20 22 34
75 82 88 93 96 100 105 109 110 111 111 110 108 106 104 102 102 102 103 100 98 93 89 90 92 90 85 84 85 85 83 79 76 72 70 64 59 60 58 49 47 44 39 32 30 24 23
84 91 95 97 100 104 106 107 108 108 108 107 105 103 104 103 103 103 103 103 102 97 93 91 91 93 94 89 89 90 88 85 83 78 75 71 65 61 60 57 55 51 47 38 34 32 31
91 95 96 99 101 103 101 95 91 87 85 85 84 80 78 81 90 98 104 107 104 101 97 94 93 93 95 96 94 93 92 91 88 84 81 78 72 70 66 61 56 51 47 40 41 40 32
97 99 98 97 93 86 79 73 70 67 65 64 63 61 60 60 65 71 85 100 106 106 101 97 94 96 95 99 98 97 96 96 94 91 86 81 78 75 71 67 63 55 50 46 42 36 35
101 101 97 88 83 73 67 64 61 57 55 53 53 51 47 49 53 57 64 78 97 104 108 103 98 97 100 99 101 101 101 98 100 97 93 87 82 76 73 74 67 60 56 51 46 40 32
107 105 92 86 76 68 61 58 57 53 49 46 43 43 43 40 44 48 56 62 74 92 104 107 108 99 98 100 101 102 103 102 101 102 99 93 88 81 75 76 72 66 60 55 53 45 41
111 105 95 86 72 65 59 53 51 47 43 39 39 37 35 36 37 41 47 54 60 73 89 102 108 106 101 101 101 101 102 104 103 102 103 100 94 88 81 77 76 71 63 61 60 54 47
113 102 92 82 70 64 58 52 47 45 43 38 35 32 30 29 31 36 39 45 52 59 71 87 99 104 106 100 101 101 101 102 102 104 103 103 101 96 90 83 79 70 72 68 65 60 53
115 101 88 73 64 59 56 50 47 49 42 37 32 28 25 23 26 29 33 37 43 50 59 70 83 96 101 104 100 101 102 100 101 102 105 104 105 102 99 91 80 78 76 73 69 65 60
113 98 86 68 62 57 52 50 50 46 41 36 30 26 23 21 17 21 25 29 34 42 49 57 70 79 89 96 103 104 103 101 99 99 101 106 105 105 102 97 87 82 83 78 72 65 63
106 91 78 63 58 52 48 53 51 46 45 39 32 28 26 20 13 11 13 19 26 32 39 46 56 65 73 83 92 103 105 102 101 98 98 99 104 102 103 99 92 89 86 82 78 70 70
104 85 71 60 55 49 47 50 50 48 45 42 36 31 27 22 16 10 6 9 17 24 29 35 44 54 60 71 79 89 102 104 100 100 97 94 95 98 103 99 92 89 92 87 82 80 77
100 82 65 56 50 45 45 47 47 47 48 43 41 33 27 22 17 12 6 3 5 11 20 27 34 41 49 56 67 77 88 97 106 102 102 94 89 94 96 94 95 96 91 93 93 88 84

GFSGBSN_250_spd_036.txt.gz
Wind_Speed
34 36 37 38 40 41 42 43 43 43 43 42 41 40 39 38 38 38 38 38 36 34 34 33 33 32 33 33 32 30 33 29 29 27 24 20 21 20 19 18 15 15 13 11 11 16 23
38 40 41 43 44 45 45 46 47 47 47 47 47 46 46 47 46 46 45 44 43 41 41 40 40 38 39 41 34 34 33 31 29 29 29 25 21 25 26 22 20 18 16 16 13 9 11
44 45 47 49 49 49 50 51 51 51 53 54 54 53 51 52 52 52 51 50 49 48 48 46 43 42 39 43 36 33 33 32 31 32 32 28 27 27 29 26 27 23 20 18 16 13 12
46 48 50 51 54 55 55 56 57 56 56 54 58 59 58 58 56 56 55 53 51 48 46 45 43 41 38 45 37 37 38 36 36 35 37 35 30 31 33 33 33 29 25 22 20 17 17
45 46 47 50 52 54 56 57 58 58 58 59 60 60 59 59 58 57 56 57 55 54 53 50 46 43 43 50 44 44 44 42 42 40 39 41 38 37 37 39 38 35 30 25 23 21 19
51 54 58 58 59 61 62 63 64 64 64 64 64 66 65 63 62 65 64 62 63 63 59 58 57 53 52 52 52 46 46 44 42 38 39 39 42 41 40 41 42 39 33 30 28 23 20
55 58 60 61 62 64 66 67 68 67 67 68 69 70 70 68 67 68 67 66 65 63 64 65 65 62 60 58 56 50 49 44 43 42 41 39 38 43 42 44 43 38 34 33 32 27 20
58 61 63 65 67 69 71 72 74 75 75 75 75 76 77 74 73 72 71 68 68 65 65 65 63 61 58 57 58 54 49 49 47 46 42 45 46 40 41 45 45 41 38 38 35 31 25
65 68 70 72 73 74 76 78 80 81 81 80 79 80 82 81 79 77 76 76 75 73 70 73 71 67 61 59 58 56 53 54 51 48 49 49 40 40 42 44 46 47 48 47 44 36 31
66 69 71 74 77 79 81 83 85 86 86 86 86 87 87 87 87 84 81 78 79 76 75 71 72 68 66 63 58 59 59 56 51 49 51 47 43 43 42 44 47 48 52 51 47 40 36
72 74 76 77 78 78 79 80 81 84 87 89 91 92 94 95 96 94 89 86 84 80 82 76 77 73 73 63 62 60 61 56 53 54 47 51 46 42 40 42 38 47 45 45 51 43 39
64 65 66 68 71 74 76 79 83 86 88 89 89 90 91 92 93 95 96 95 92 90 85 81 79 80 78 74 68 66 64 60 58 56 50 52 48 40 40 38 40 37 38 41 46 48 37
61 63 64 64 66 71 76 81 87 90 95 99 100 101 100 100 97 93 93 94 96 96 94 89 83 82 81 78 73 72 70 64 60 58 52 53 49 46 43 40 37 34 35 39 41 44 43
52 57 62 66 71 77 81 85 90 96 101 106 107 104 102 100 101 99 97 95 94 91 92 91 90 87 87 84 80 76 73 68 65 64 63 61 55 52 47 43 43 35 32 31 40 50 60
56 64 68 73 77 84 88 93 99 104 107 109 109 108 106 103 100 99 100 100 100 96 86 84 91 94 94 91 87 81 77 73 70 70 69 65 59 57 54 51 44 36 25 36 33 41 49
67 74 80 81 88 92 96 100 100 101 103 104 105 104 102 101 101 99 97 98 99 97 92 93 91 89 91 94 91 87 86 77 73 75 75 68 67 61 61 59 46 36 37 22 23 30 41
74 84 84 89 91 95 99 101 100 100 97 92 87 82 79 80 84 91 98 103 100 93 92 94 98 91 88 89 95 94 89 82 80 78 70 71 68 66 67 58 49 46 38 30 27 26 29
84 85 88 89 93 97 97 95 89 82 78 74 71 67 63 63 64 69 79 92 99 100 97 93 93 98 94 92 93 98 95 89 84 76 76 79 74 69 65 66 59 57 54 45 36 31 33
86 89 89 92 97 93 87 80 69 64 63 60 59 57 55 54 54 57 60 70 85 94 100 102 95 94 99 99 96 97 97 96 90 84 83 80 77 75 71 69 62 56 55 50 42 39 32
89 91 95 99 95 86 78 69 63 58 57 56 53 48 46 46 46 47 52 58 67 79 92 100 101 96 95 101 101 99 99 100 97 91 86 83 84 79 72 71 69 62 58 54 50 46 39
89 95 100 101 93 81 74 66 62 57 52 50 47 45 41 40 41 42 44 50 57 64 78 90 99 102 101 99 100 100 100 102 101 96 93 88 86 84 83 75 67 61 61 58 53 53 47
94 100 103 99 88 79 67 62 58 55 51 49 44 41 39 35 35 36 39 42 50 56 65 80 92 100 103 106 100 99 94 100 101 99 96 93 90 87 84 79 74 69 63 60 57 56 53
99 102 104 99 85 77 65 60 55 53 50 47 45 39 35 32 31 29 32 35 41 49 56 68 80 93 99 105 104 96 96 96 97 101 99 96 93 89 89 86 82 73 65 63 59 59 57
103 104 104 97 83 72 63 57 53 48 48 45 40 35 31 29 26 25 25 28 33 40 49 57 68 84 94 99 105 100 98 95 94 100 101 98 95 94 93 90 84 71 74 69 65 66 64
103 106 104 95 83 67 61 56 49 46 47 42 34 31 26 27 24 20 20 20 25 33 42 50 58 69 84 95 100 103 98 95 95 96 101 101 98 97 95 88 84 83 76 73 68 67 67
104 106 103 91 82 64 57 53 47 47 47 43 34 30 27 26 23 19 16 13 15 25 34 42 48 58 71 86 95 103 104 100 96 96 96 100 101 99 97 92 88 87 82 77 73 72 73
104 105 102 87 78 61 54 48 45 45 45 40 33 31 28 26 23 19 12 8 8 16 24 32 39 49 56 71 86 97 104 101 94 94 94 95 98 99 99 95 92 91 86 79 80 83 80
103 105 100 82 72 58 53 43 41 41 44 36 34 31 29 26 23 18 13 8 3 8 17 23 31 38 47 54 70 87 97 100 97 95 91 90 93 97 101 97 95 92 89 85 87 81 80
103 102 97 78 64 53 47 39 39 39 39 34 33 30 29 27 24 20 15 11 7 2 10 16 22 29 36 43 53 71 88 95 100 98 94 89 89 93 97 97 94 96 94 89 85 82 81